FW5161 Weather Reports


time (UTC)temp
F
wind
direction
speed
knots
gust
knots
rain 1hr
in
rain 24hr
in
rain mn
in
humidity
%
barometer
mb
20260508082534 57 191 4.3 11.3 0.00 0.00 0.00 74 1014.6
20260508082029 57 159 5.2 12.2 0.00 0.00 0.00 74 1014.6
20260508081535 57 184 4.3 12.2 0.00 0.00 0.00 74 1014.6
20260508081029 57 128 3.5 12.2 0.00 0.00 0.00 74 1014.6
20260508080531 56 156 2.6 9.6 0.00 0.00 0.00 74 1014.7
20260508080031 57 131 3.5 9.6 0.00 0.00 0.00 73 1014.7
20260508075531 57 107 4.3 8.7 0.00 0.00 0.00 73 1014.6
20260508075029 56 129 3.5 8.7 0.00 0.00 0.00 73 1014.7
20260508074530 56 187 1.7 6.1 0.00 0.00 0.00 74 1014.7
20260508074029 56 301 1.7 6.1 0.00 0.00 0.00 73 1014.8
20260508073529 56 199 2.6 6.1 0.00 0.00 0.00 74 1014.8
20260508073029 56 94 3.5 8.7 0.00 0.00 0.00 73 1014.8
20260508072523 56 111 2.6 8.7 0.00 0.00 0.00 74 1014.9
20260508072016 56 132 1.7 7.8 0.00 0.00 0.00 75 1015.0
20260508071513 56 102 1.7 7.8 0.00 0.00 0.00 75 1015.0
20260508071247 56 245 1.7 6.1 0.00 0.00 0.00 76 1015.1
20260508070512 55 299 1.7 6.1 0.00 0.00 0.00 76 1014.9
20260508070011 55 72 0.0 3.5 0.00 0.00 0.00 77 1014.9
20260508065511 55 103 0.9 2.6 0.00 0.00 0.00 76 1015.1
20260508065012 56 103 0.9 3.5 0.00 0.00 0.00 75 1015.0
20260508064512 56 326 1.7 7.8 0.00 0.00 0.00 74 1015.0
20260508064012 56 202 2.6 7.8 0.00 0.00 0.00 74 1015.0
20260508063511 56 157 1.7 7.8 0.00 0.00 0.00 74 1015.0
20260508063011 56 222 1.7 9.6 0.00 0.00 0.00 74 1015.1
20260508062511 56 122 1.7 9.6 0.00 0.00 0.00 74 1015.0
20260508062011 56 210 1.7 7.0 0.00 0.00 0.00 75 1015.1
20260508061511 56 32 1.7 4.3 0.00 0.00 0.00 75 1015.2
20260508061011 56 309 1.7 4.3 0.00 0.00 0.00 74 1015.2
20260508060510 56 231 1.7 5.2 0.00 0.00 0.00 75 1015.2
20260508060012 56 112 1.7 5.2 0.00 0.00 0.00 75 1015.2
20260508055510 56 38 1.7 7.8 0.00 0.00 0.00 75 1015.2
20260508055008 56 182 2.6 12.2 0.00 0.00 0.00 75 1015.2
20260508054512 56 223 4.3 12.2 0.00 0.00 0.00 74 1015.2
20260508054009 56 214 4.3 12.2 0.00 0.00 0.00 75 1015.2
20260508053507 56 158 3.5 12.2 0.00 0.00 0.00 75 1015.2
20260508053006 56 160 4.3 9.6 0.00 0.00 0.00 75 1015.2
20260508052735 56 222 4.3 10.4 0.00 0.00 0.00 74 1015.1
20260508052232 56 177 4.3 11.3 0.00 0.00 0.00 74 1015.1
20260508051502 56 162 6.1 13.0 0.00 0.00 0.00 74 1015.1
20260508051000 56 112 7.0 13.0 0.00 0.00 0.00 74 1015.1
20260508050501 56 123 7.8 15.6 0.00 0.00 0.00 73 1015.2
20260508050001 56 164 7.8 15.6 0.00 0.00 0.00 74 1015.1
20260508045501 57 137 7.0 14.8 0.00 0.00 0.00 74 1015.2
20260508045001 56 170 6.1 14.8 0.00 0.00 0.00 73 1015.1
20260508044507 56 156 7.0 12.2 0.00 0.00 0.00 73 1015.1
20260508044003 57 138 7.0 12.2 0.00 0.00 0.00 73 1015.3
20260508043002 57 141 7.8 14.8 0.00 0.00 0.00 73 1015.4
20260508042504 57 116 7.0 14.8 0.00 0.00 0.00 73 1015.4
20260508041502 57 170 7.0 11.3 0.00 0.00 0.00 73 1015.5
20260508041001 56 145 7.0 11.3 0.00 0.00 0.00 73 1015.6
20260508040501 57 128 7.0 13.0 0.00 0.00 0.00 73 1015.5
20260508040001 56 151 7.0 13.0 0.00 0.00 0.00 73 1015.5
20260508035501 56 159 7.0 11.3 0.00 0.00 0.00 73 1015.5
20260508035001 56 159 7.0 12.2 0.00 0.00 0.00 72 1015.5
20260508034502 57 127 7.0 12.2 0.00 0.00 0.00 72 1015.5
20260508033456 57 127 6.1 12.2 0.00 0.00 0.00 72 1015.4
20260508032950 57 145 5.2 12.2 0.00 0.00 0.00 72 1015.4
20260508032444 57 136 5.2 11.3 0.00 0.00 0.00 72 1015.4
20260508031938 57 176 5.2 11.3 0.00 0.00 0.00 72 1015.4
20260508031433 57 159 6.1 10.4 0.00 0.00 0.00 72 1015.5
20260508031207 57 116 6.1 10.4 0.00 0.00 0.00 72 1015.5
20260508030430 57 147 4.3 9.6 0.00 0.00 0.00 71 1015.6
20260508025931 58 97 4.3 11.3 0.00 0.00 0.00 71 1015.5
20260508025428 58 172 3.5 11.3 0.00 0.00 0.00 70 1015.6
20260508024930 58 139 3.5 9.6 0.00 0.00 0.00 70 1015.5
20260508024700 59 101 2.6 9.6 0.00 0.00 0.00 70 1015.5
20260508023929 59 276 2.6 8.7 0.00 0.00 0.00 69 1015.6
20260508023705 60 213 3.5 8.7 0.00 0.00 0.00 68 1015.7
20260508022931 60 302 3.5 8.7 0.00 0.00 0.00 68 1015.8
20260508022431 60 229 4.3 11.3 0.00 0.00 0.00 67 1015.8
20260508021930 60 258 4.3 11.3 0.00 0.00 0.00 66 1015.8
20260508021429 60 209 3.5 10.4 0.00 0.00 0.00 67 1015.7
20260508020930 60 216 3.5 10.4 0.00 0.00 0.00 67 1015.7
20260508020429 60 180 5.2 11.3 0.00 0.00 0.00 67 1015.7
20260508015929 60 252 5.2 11.3 0.00 0.00 0.00 66 1015.8
20260508015428 61 216 4.3 10.4 0.00 0.00 0.00 65 1015.9
20260508014940 61 239 4.3 10.4 0.00 0.00 0.00 66 1015.9
20260508014439 62 226 4.3 10.4 0.00 0.00 0.00 65 1016.0
20260508013930 62 281 3.5 7.8 0.00 0.00 0.00 64 1016.0
20260508013423 62 247 3.5 8.7 0.00 0.00 0.00 67 1016.0
20260508012916 63 234 3.5 8.7 0.00 0.00 0.00 63 1016.0
20260508012414 64 304 1.7 4.3 0.00 0.00 0.00 67 1016.1
20260508012142 64 285 1.7 3.5 0.00 0.00 0.00 65 1016.1
20260508011414 64 355 0.9 3.5 0.00 0.00 0.00 66 1016.2
20260508011142 63 167 1.7 7.8 0.00 0.00 0.00 68 1016.2
20260508010413 61 137 2.6 7.8 0.00 0.00 0.00 68 1016.3
20260508005912 61 232 2.6 7.0 0.00 0.00 0.00 69 1016.3
20260508005412 61 242 2.6 7.0 0.00 0.00 0.00 69 1016.4
20260508004912 61 190 2.6 7.0 0.00 0.00 0.00 71 1016.4
20260508004412 60 249 2.6 6.1 0.00 0.00 0.00 71 1016.5
20260508003911 61 314 1.7 4.3 0.00 0.00 0.00 70 1016.5
20260508003411 61 314 1.7 3.5 0.00 0.00 0.00 72 1016.5
20260508002912 61 295 1.7 3.5 0.00 0.00 0.00 71 1016.5
20260508002409 60 177 2.6 6.1 0.00 0.00 0.00 71 1016.6
20260508001910 60 312 2.6 6.1 0.00 0.00 0.00 72 1016.7
20260508001635 60 228 2.6 5.2 0.00 0.00 0.00 71 1016.7
20260508000908 60 302 2.6 5.2 0.00 0.00 0.00 69 1016.7
20260508000408 61 247 2.6 5.2 0.00 0.00 0.00 69 1016.7
20260507235907 61 250 3.5 5.2 0.00 0.00 0.00 70 1016.7
20260507235408 62 253 2.6 5.2 0.00 0.00 0.00 70 1016.6
20260507234908 61 285 2.6 4.3 0.00 0.00 0.00 70 1016.6
20260507234409 60 270 2.6 6.1 0.00 0.00 0.00 72 1016.6
20260507234137 60 285 2.6 6.1 0.00 0.00 0.00 72 1016.6
20260507233404 60 263 2.6 5.2 0.00 0.00 0.00 73 1016.7
20260507232903 60 239 3.5 7.0 0.00 0.00 0.00 71 1016.7
20260507232404 60 201 2.6 7.0 0.00 0.00 0.00 70 1016.7
20260507232127 60 241 2.6 5.2 0.00 0.00 0.00 71 1016.7
20260507231404 61 253 2.6 5.2 0.00 0.00 0.00 69 1016.8
20260507230904 61 205 2.6 6.1 0.00 0.00 0.00 70 1016.9
20260507230404 61 318 2.6 6.1 0.00 0.00 0.00 72 1017.0
20260507225905 61 312 2.6 5.2 0.00 0.00 0.00 73 1017.0
20260507225402 61 232 3.5 7.0 0.00 0.00 0.00 71 1017.1
20260507224859 60 262 3.5 7.0 0.00 0.00 0.00 72 1017.2
20260507224625 61 204 3.5 6.1 0.00 0.00 0.00 70 1017.0
20260507223858 61 274 2.6 6.1 0.00 0.00 0.00 71 1017.2
20260507223354 62 272 2.6 7.0 0.00 0.00 0.00 68 1017.3
20260507222854 62 261 3.5 7.0 0.00 0.00 0.00 72 1017.3
20260507222355 61 295 3.5 7.0 0.00 0.00 0.00 73 1017.4
20260507221854 61 285 3.5 7.0 0.00 0.00 0.00 71 1017.4
20260507221351 61 303 3.5 7.0 0.00 0.00 0.00 72 1017.4
20260507220852 62 207 2.6 7.0 0.00 0.00 0.00 68 1017.6
20260507220352 63 300 2.6 7.0 0.00 0.00 0.00 69 1017.7
20260507215852 60 247 2.6 7.8 0.00 0.00 0.00 75 1017.8
20260507214849 62 295 3.5 7.0 0.00 0.00 0.00 71 1017.9
20260507214350 62 328 3.5 7.8 0.00 0.00 0.00 70 1017.9
20260507213849 63 248 3.5 7.8 0.00 0.00 0.00 71 1017.9
20260507213347 62 285 3.5 7.0 0.00 0.00 0.00 69 1017.9
20260507212845 60 232 3.5 7.0 0.00 0.00 0.00 72 1018.0
20260507212345 60 270 3.5 7.0 0.00 0.00 0.00 74 1018.0
20260507211842 60 276 3.5 7.8 0.00 0.00 0.00 74 1018.0
20260507211342 60 285 3.5 7.8 0.00 0.00 0.00 75 1018.0
20260507210835 60 239 2.6 4.3 0.00 0.00 0.00 77 1018.1
20260507210337 59 272 2.6 5.2 0.00 0.00 0.00 78 1018.1
20260507205835 58 230 2.6 7.0 0.00 0.00 0.00 80 1018.2
20260507205336 58 247 2.6 7.0 0.00 0.00 0.00 78 1018.2
20260507205105 60 235 3.5 7.0 0.00 0.00 0.00 75 1018.2
20260507204334 60 322 3.5 7.0 0.00 0.00 0.00 75 1018.4
20260507203837 61 339 2.6 7.0 0.00 0.00 0.00 78 1018.5
20260507203603 59 243 3.5 7.0 0.00 0.00 0.00 77 1018.4
20260507202831 59 320 2.6 6.1 0.00 0.00 0.00 78 1018.5
20260507202551 58 285 1.7 4.3 0.00 0.00 0.00 79 1018.6
20260507202332 58 285 1.7 4.3 0.00 0.00 0.00 79 1018.6
20260507201832 57 337 1.7 6.1 0.00 0.00 0.00 80 1018.6
20260507201329 58 330 2.6 6.1 0.00 0.00 0.00 76 1018.7
20260507200830 60 343 2.6 4.3 0.00 0.00 0.00 77 1018.7
20260507200329 58 314 2.6 4.3 0.00 0.00 0.00 81 1018.7
20260507195830 57 311 1.7 4.3 0.00 0.00 0.00 79 1018.7
20260507195329 58 318 1.7 4.3 0.00 0.00 0.00 79 1018.7
20260507195100 58 333 1.7 4.3 0.00 0.00 0.00 80 1018.8
20260507193832 57 323 1.7 4.3 0.00 0.00 0.00 81 1018.8
20260507193323 57 306 1.7 4.3 0.00 0.00 0.00 81 1018.8
20260507192823 57 354 2.6 6.1 0.00 0.00 0.00 82 1018.9
20260507192321 56 336 2.6 7.0 0.00 0.00 0.00 83 1019.0
20260507191819 56 301 2.6 7.0 0.00 0.00 0.00 82 1019.0
20260507191323 56 309 1.7 6.1 0.00 0.00 0.00 81 1019.0
20260507190820 57 307 1.7 6.1 0.00 0.00 0.00 81 1019.0
20260507190317 56 314 0.9 4.3 0.00 0.00 0.00 83 1019.0
20260507185815 55 8 0.9 2.6 0.00 0.00 0.00 84 1019.2
20260507185315 55 107 0.9 2.6 0.00 0.00 0.00 84 1019.2
20260507184815 55 103 0.9 2.6 0.00 0.00 0.00 84 1019.2
20260507184314 55 310 1.7 5.2 0.00 0.00 0.00 84 1019.2
20260507183813 54 308 2.6 5.2 0.00 0.00 0.00 84 1019.3
20260507183314 55 304 1.7 4.3 0.00 0.00 0.00 84 1019.3
20260507183035 55 328 1.7 3.5 0.00 0.00 0.00 84 1019.3
20260507182313 55 316 1.7 3.5 0.00 0.00 0.00 84 1019.3
20260507181811 54 328 1.7 3.5 0.00 0.00 0.00 84 1019.3
20260507181308 54 319 1.7 3.5 0.00 0.00 0.00 85 1019.4
20260507180809 54 309 1.7 3.5 0.00 0.00 0.00 84 1019.4
20260507180310 55 285 2.6 4.3 0.00 0.00 0.00 84 1019.4
20260507175809 54 295 1.7 4.3 0.00 0.00 0.00 85 1019.4
20260507175042 54 332 1.7 3.5 0.00 0.00 0.00 84 1019.4
20260507174310 54 295 1.7 3.5 0.00 0.00 0.00 85 1019.4
20260507173809 54 319 1.7 3.5 0.00 0.00 0.00 84 1019.5
20260507173307 54 327 1.7 4.3 0.00 0.00 0.00 85 1019.4
20260507173040 54 310 1.7 4.3 0.00 0.00 0.00 84 1019.4
20260507172537 54 311 1.7 3.5 0.00 0.00 0.00 85 1019.2
20260507171305 54 305 1.7 3.5 0.00 0.00 0.00 85 1019.2
20260507170804 53 236 1.7 3.5 0.00 0.00 0.00 84 1019.2
20260507170305 54 295 1.7 2.6 0.00 0.00 0.00 84 1019.1
20260507165804 54 300 1.7 3.5 0.00 0.00 0.00 85 1019.2
20260507165306 54 316 1.7 3.5 0.00 0.00 0.00 84 1019.1
20260507164803 54 310 0.9 3.5 0.00 0.00 0.00 84 1019.2
20260507164303 54 290 0.9 2.6 0.00 0.00 0.00 85 1019.1
20260507163804 53 232 0.9 2.6 0.00 0.00 0.00 85 1019.2
20260507163534 53 214 0.9 1.7 0.00 0.00 0.00 85 1019.1
20260507162802 53 224 0.9 2.6 0.00 0.00 0.00 85 1019.1
20260507162306 53 224 0.9 2.6 0.00 0.00 0.00 84 1019.3
20260507161803 53 220 1.7 3.5 0.00 0.00 0.00 83 1019.2
20260507161302 54 213 1.7 3.5 0.00 0.00 0.00 83 1019.3
20260507160802 53 274 1.7 3.5 0.00 0.00 0.00 81 1019.2
20260507160304 53 330 0.9 2.6 0.00 0.00 0.00 82 1019.2
20260507155803 53 219 1.7 3.5 0.00 0.00 0.00 83 1019.2
20260507154807 53 255 1.7 4.3 0.00 0.00 0.00 83 1019.3
20260507154605 53 243 1.7 4.3 0.00 0.00 0.00 82 1019.4
20260507153804 53 244 1.7 4.3 0.00 0.00 0.00 81 1019.5
20260507153303 54 290 2.6 6.1 0.00 0.00 0.00 80 1019.6
20260507153034 54 272 2.6 7.0 0.00 0.00 0.00 79 1019.6
20260507152301 53 259 3.5 8.7 0.00 0.00 0.00 78 1019.5
20260507151800 53 209 3.5 8.7 0.00 0.00 0.00 79 1019.6
20260507151301 53 139 3.5 8.7 0.00 0.00 0.00 78 1019.5
20260507150254 53 171 2.6 6.1 0.00 0.00 0.00 80 1019.5
20260507145749 53 254 2.6 6.1 0.00 0.00 0.00 81 1019.6
20260507145242 53 231 1.7 4.3 0.00 0.00 0.00 82 1019.6
20260507144742 52 228 0.9 4.3 0.00 0.00 0.00 83 1019.6
20260507144243 52 252 0.0 3.5 0.00 0.00 0.00 84 1019.6
20260507143740 52 99 0.0 0.0 0.00 0.00 0.00 85 1019.6
20260507143520 52 97 0.0 0.9 0.00 0.00 0.00 85 1019.6
20260507142736 52 97 0.0 2.6 0.00 0.00 0.00 84 1019.5
20260507142235 52 97 0.9 2.6 0.00 0.00 0.00 84 1019.5
20260507142010 52 86 0.9 2.6 0.00 0.00 0.00 84 1019.4
20260507141231 53 65 0.9 2.6 0.00 0.00 0.00 84 1019.5
20260507141007 53 103 0.9 4.3 0.00 0.00 0.00 83 1019.4
20260507140229 53 103 0.9 4.3 0.00 0.00 0.00 83 1019.5
20260507135730 53 359 0.0 1.7 0.00 0.00 0.00 83 1019.4
20260507135229 53 359 0.0 1.7 0.00 0.00 0.00 82 1019.4
20260507134729 53 336 0.9 3.5 0.00 0.00 0.00 83 1019.3
20260507134230 52 336 0.9 3.5 0.00 0.00 0.00 84 1019.3
20260507133732 52 40 0.9 1.7 0.00 0.00 0.00 84 1019.2
20260507133229 52 42 0.9 1.7 0.00 0.00 0.00 84 1019.2
20260507133002 52 40 0.9 1.7 0.00 0.00 0.00 84 1019.2
20260507132229 52 42 0.0 1.7 0.00 0.00 0.00 83 1019.0
20260507131724 52 42 0.0 2.6 0.00 0.00 0.00 83 1019.0
20260507131218 52 42 0.0 2.6 0.00 0.00 0.00 82 1018.9
20260507130948 52 43 0.0 0.9 0.00 0.00 0.00 82 1018.9
20260507130205 52 43 0.0 0.9 0.00 0.00 0.00 82 1018.9
20260507125703 52 43 0.0 1.7 0.00 0.00 0.00 82 1019.0
20260507125202 52 43 0.0 1.7 0.00 0.00 0.00 81 1018.9
20260507124703 52 43 0.9 1.7 0.00 0.00 0.00 81 1018.9
20260507124201 53 43 0.9 1.7 0.00 0.00 0.00 81 1019.0
20260507123702 53 40 0.9 2.6 0.00 0.00 0.00 81 1018.9
20260507123202 53 42 0.9 2.6 0.00 0.00 0.00 81 1018.9
20260507122701 53 349 0.0 1.7 0.00 0.00 0.00 80 1019.0
20260507122434 53 341 0.9 3.5 0.00 0.00 0.00 80 1019.0
20260507121701 53 341 1.7 7.0 0.00 0.00 0.00 79 1019.1
20260507121207 54 230 2.6 7.0 0.00 0.00 0.00 76 1019.1
20260507120704 54 259 1.7 6.1 0.00 0.00 0.00 76 1019.1
20260507120201 53 232 1.7 6.1 0.00 0.00 0.00 77 1019.1
20260507115701 53 251 0.9 2.6 0.00 0.00 0.00 78 1019.0
20260507115201 53 215 0.9 2.6 0.00 0.00 0.00 79 1019.1
20260507114701 53 215 0.9 3.5 0.00 0.00 0.00 78 1019.2
20260507114201 53 262 0.0 3.5 0.00 0.00 0.00 80 1019.2
20260507113701 53 313 0.0 2.6 0.00 0.00 0.00 80 1019.2
20260507113159 53 313 0.0 2.6 0.00 0.00 0.00 79 1019.2
20260507112921 53 351 0.0 0.9 0.00 0.00 0.00 79 1019.3
20260507112147 53 359 0.0 0.0 0.00 0.00 0.00 79 1019.3
20260507111642 53 359 0.0 0.0 0.00 0.00 0.00 79 1019.3
20260507111136 53 357 0.0 0.0 0.00 0.00 0.00 79 1019.3
20260507110903 53 355 0.0 1.7 0.00 0.00 0.00 78 1019.3
20260507110351 53 350 0.9 3.5 0.00 0.00 0.00 77 1019.1
20260507105622 54 351 1.7 7.0 0.00 0.00 0.00 77 1019.1
20260507105353 54 247 1.7 7.0 0.00 0.00 0.00 76 1019.1
20260507104620 54 295 2.6 7.8 0.00 0.00 0.00 76 1019.0
20260507104120 54 127 3.5 8.7 0.00 0.00 0.00 75 1019.0
20260507103619 54 176 6.1 13.0 0.00 0.00 0.00 76 1019.0
20260507103120 54 191 6.1 13.0 0.00 0.00 0.00 76 1019.1
20260507102620 54 190 5.2 11.3 0.00 0.00 0.00 76 1019.1
20260507102120 54 207 5.2 13.0 0.00 0.00 0.00 75 1019.1
20260507101620 54 182 5.2 13.0 0.00 0.00 0.00 75 1019.1
20260507101121 54 228 5.2 13.0 0.00 0.00 0.00 76 1019.2
20260507100624 54 174 5.2 13.0 0.00 0.00 0.00 76 1019.1
20260507100119 54 209 6.1 13.9 0.00 0.00 0.00 76 1019.1
20260507095620 54 124 7.0 16.5 0.00 0.00 0.00 75 1019.0
20260507095120 54 152 7.0 16.5 0.00 0.00 0.00 76 1019.2
20260507094620 54 119 7.0 15.6 0.00 0.00 0.00 78 1019.1
20260507094115 54 185 7.0 15.6 0.00 0.00 0.00 78 1019.1
20260507093852 54 151 6.1 13.9 0.00 0.00 0.00 78 1019.1
20260507093123 54 202 7.0 13.0 0.00 0.00 0.00 78 1019.1
20260507092620 54 134 7.8 14.8 0.00 0.00 0.00 78 1019.1
20260507092118 54 158 7.0 14.8 0.00 0.00 0.00 79 1019.2
20260507091615 54 174 7.0 13.9 0.00 0.00 0.00 78 1019.1
20260507091116 54 211 7.0 13.9 0.00 0.00 0.00 79 1019.0
20260507090616 54 96 5.2 12.2 0.00 0.00 0.00 79 1019.1
20260507090116 54 128 5.2 12.2 0.00 0.00 0.00 79 1019.1
20260507085612 55 234 6.1 12.2 0.00 0.00 0.00 79 1019.0
20260507085112 55 124 6.1 14.8 0.00 0.00 0.00 79 1019.0
20260507084611 55 99 5.2 14.8 0.00 0.00 0.00 79 1019.0
20260507084111 55 162 4.3 11.3 0.00 0.00 0.00 79 1019.0
20260507083613 55 144 5.2 13.0 0.00 0.00 0.00 79 1018.9
20260507083112 55 124 5.2 13.0 0.00 0.00 0.00 79 1019.0